Hulett, WY

9:44 AM MST on December 11, 2019 (GMT -0700)
Hulett

Weather History for KW43 - May, 2019

Change the Weather History Date:

Wednesday, May 15, 2019

  Actual Average (WUND) Record (WUND)
Temperature  
Mean Temperature 65 °F -  
Max Temperature 77 °F - - (-1)
Min Temperature 53 °F - - (-1)
Growing Degree Days 15 (Base 50)    
Moisture  
Dew Point 44 °F    
Average Humidity 47    
Maximum Humidity 72    
Minimum Humidity 28    
Precipitation  
Precipitation 0.00 in - - ()
Sea Level Pressure  
Sea Level Pressure 29.88 in    
Wind  
Wind Speed 6 mph (WNW)    
Max Wind Speed 15 mph    
Max Gust Speed 22 mph    
Visibility 10 miles    
Events      
Averages and records for this station are not official NWS values.
T = Trace of Precipitation, MM = Missing Value Source: NWS Daily Summary

Daily Weather History Graph

Daily Weather History Graph

Search for Another Location

Airport or City:

Astronomy

May. 15, 2019 Rise Set
Actual Time 5:30 AM MDT 8:19 PM MDT
Civil Twilight 4:56 AM MDT 8:53 PM MDT
Nautical Twilight 4:13 AM MDT 9:36 PM MDT
Astronomical Twilight 3:23 AM MDT 10:27 PM MDT
Moon 4:41 PM MDT (5/15) 4:10 AM MDT (5/15)
Length of Visible Light 15h 57m
Length of Day
14h 49m
Waxing Gibbous, 88% of the Moon is Illuminated
May 15
Waxing Gibbous
May 18
Full
May 26
Last Quarter
Jun 3
New
Jun 10
First Quarter

Hourly Weather History & Observations

Time (MDT) Temp. Dew Point Humidity Pressure Visibility Wind Dir Wind Speed Gust Speed Precip Events Conditions
12:15 AM 59.0 °F 46.4 °F 63% 29.96 in 10.0 mi SSW 8.1 mph - N/A   Scattered Clouds
12:35 AM 57.2 °F 44.6 °F 63% 29.95 in 10.0 mi SW 4.6 mph - N/A   Clear
12:55 AM 55.4 °F 46.4 °F 72% 29.94 in 10.0 mi WNW 4.6 mph - N/A   Clear
1:15 AM 55.4 °F 44.6 °F 67% 29.94 in 10.0 mi Calm Calm - N/A   Clear
1:35 AM 53.6 °F 44.6 °F 72% 29.93 in 10.0 mi Calm Calm - N/A   Clear
1:55 AM 55.4 °F 44.6 °F 67% 29.92 in 10.0 mi Calm Calm - N/A   Clear
2:15 AM 55.4 °F 44.6 °F 67% 29.92 in 10.0 mi Calm Calm - N/A   Clear
2:35 AM 57.2 °F 44.6 °F 63% 29.92 in 10.0 mi SSW 3.5 mph - N/A   Clear
2:55 AM 59.0 °F 44.6 °F 59% 29.91 in 10.0 mi South 9.2 mph - N/A   Clear
3:15 AM 55.4 °F 42.8 °F 63% 29.91 in 10.0 mi SW 4.6 mph - N/A   Clear
3:35 AM 57.2 °F 42.8 °F 59% 29.91 in 10.0 mi WSW 4.6 mph - N/A   Clear
3:55 AM 57.2 °F 42.8 °F 59% 29.90 in 10.0 mi SW 5.8 mph - N/A   Clear
4:15 AM 55.4 °F 42.8 °F 63% 29.90 in 10.0 mi Calm Calm - N/A   Clear
4:35 AM 55.4 °F 42.8 °F 63% 29.90 in 10.0 mi SW 4.6 mph - N/A   Clear
4:55 AM 55.4 °F 42.8 °F 63% 29.89 in 10.0 mi Calm Calm - N/A   Clear
5:15 AM 59.0 °F 42.8 °F 55% 29.89 in 10.0 mi South 3.5 mph - N/A   Clear
5:35 AM 55.4 °F 42.8 °F 63% 29.90 in 10.0 mi Calm Calm - N/A   Clear
5:55 AM 57.2 °F 42.8 °F 59% 29.90 in 10.0 mi WSW 5.8 mph - N/A   Clear
6:15 AM 59.0 °F 42.8 °F 55% 29.90 in 10.0 mi SW 8.1 mph - N/A   Clear
6:35 AM 60.8 °F 42.8 °F 52% 29.89 in 10.0 mi SSW 12.7 mph - N/A   Clear
6:55 AM 62.6 °F 42.8 °F 48% 29.90 in 10.0 mi SW 10.4 mph 17.3 mph N/A   Clear
7:15 AM 62.6 °F 42.8 °F 48% 29.90 in 10.0 mi SSW 11.5 mph 16.1 mph N/A   Clear
7:35 AM 62.6 °F 42.8 °F 48% 29.89 in 10.0 mi SSW 12.7 mph 21.9 mph N/A   Clear
7:55 AM 64.4 °F 42.8 °F 45% 29.89 in 10.0 mi SW 9.2 mph 16.1 mph N/A   Clear
8:15 AM 66.2 °F 42.8 °F 43% 29.89 in 10.0 mi SW 13.8 mph 18.4 mph N/A   Clear
8:35 AM 66.2 °F 42.8 °F 43% 29.88 in 10.0 mi SSW 13.8 mph 19.6 mph N/A   Clear
8:55 AM 68.0 °F 42.8 °F 40% 29.90 in 10.0 mi SW 11.5 mph - N/A   Clear
9:15 AM 69.8 °F 42.8 °F 38% 29.90 in 10.0 mi SW 11.5 mph 19.6 mph N/A   Clear
9:35 AM 68.0 °F 44.6 °F 43% 29.90 in 10.0 mi SW 15.0 mph 19.6 mph N/A   Clear
9:55 AM 69.8 °F 44.6 °F 40% 29.90 in 10.0 mi SW 15.0 mph - N/A   Clear
10:15 AM 69.8 °F 44.6 °F 40% 29.90 in 10.0 mi SW 11.5 mph 17.3 mph N/A   Clear
10:35 AM 71.6 °F 46.4 °F 41% 29.91 in 10.0 mi West 9.2 mph - N/A   Clear
10:55 AM 73.4 °F 44.6 °F 36% 29.91 in 10.0 mi West 11.5 mph 17.3 mph N/A   Clear
11:15 AM 71.6 °F 44.6 °F 38% 29.91 in 10.0 mi West 5.8 mph - N/A   Clear
11:35 AM 73.4 °F 44.6 °F 36% 29.90 in 10.0 mi West 5.8 mph - N/A   Clear
11:55 AM 73.4 °F 42.8 °F 33% 29.90 in 10.0 mi NNW 8.1 mph - N/A   Clear
12:15 PM 73.4 °F 42.8 °F 33% 29.89 in 10.0 mi NW 4.6 mph - N/A   Clear
12:35 PM 73.4 °F 42.8 °F 33% 29.89 in 10.0 mi WNW 5.8 mph - N/A   Clear
12:55 PM 75.2 °F 42.8 °F 31% 29.89 in 10.0 mi West 6.9 mph 16.1 mph N/A   Clear
1:15 PM 77.0 °F 42.8 °F 29% 29.88 in 10.0 mi NW 4.6 mph - N/A   Clear
1:35 PM 77.0 °F 41.0 °F 28% 29.87 in 10.0 mi North 5.8 mph - N/A   Clear
1:55 PM 77.0 °F 42.8 °F 29% 29.87 in 10.0 mi North 9.2 mph - N/A   Clear
2:15 PM 77.0 °F 42.8 °F 29% 29.87 in 10.0 mi Calm Calm - N/A   Clear
2:35 PM 77.0 °F 44.6 °F 32% 29.86 in 10.0 mi NNW 11.5 mph - N/A   Clear
2:55 PM 77.0 °F 42.8 °F 29% 29.86 in 10.0 mi NW 11.5 mph - N/A   Clear
3:15 PM 75.2 °F 44.6 °F 34% 29.86 in 10.0 mi NNW 9.2 mph - N/A   Clear
3:35 PM 77.0 °F 42.8 °F 29% 29.85 in 10.0 mi NNW 8.1 mph - N/A   Clear
3:55 PM 73.4 °F 42.8 °F 33% 29.85 in 10.0 mi North 8.1 mph - N/A   Clear
4:15 PM 77.0 °F 42.8 °F 29% 29.85 in 10.0 mi NNW 8.1 mph - N/A   Clear
4:35 PM 77.0 °F 42.8 °F 29% 29.84 in 10.0 mi NNW 6.9 mph - N/A   Clear
4:55 PM 77.0 °F 44.6 °F 32% 29.84 in 10.0 mi NNW 6.9 mph - N/A   Clear
5:15 PM 77.0 °F 42.8 °F 29% 29.84 in 10.0 mi WNW 5.8 mph - N/A   Clear
5:35 PM 77.0 °F 42.8 °F 29% 29.84 in 10.0 mi NW 8.1 mph - N/A   Clear
5:55 PM 77.0 °F 44.6 °F 32% 29.83 in 10.0 mi North 9.2 mph - N/A   Clear
6:15 PM 75.2 °F 46.4 °F 36% 29.83 in 10.0 mi North 8.1 mph - N/A   Clear
6:35 PM 71.6 °F 44.6 °F 38% 29.83 in 10.0 mi North 6.9 mph - N/A   Clear
6:55 PM 73.4 °F 46.4 °F 38% 29.83 in 10.0 mi North 5.8 mph - N/A   Clear
7:15 PM 71.6 °F 46.4 °F 41% 29.83 in 10.0 mi NE 3.5 mph - N/A   Clear
7:35 PM 69.8 °F 46.4 °F 43% 29.83 in 10.0 mi NE 6.9 mph - N/A   Clear
7:55 PM 68.0 °F 46.4 °F 46% 29.83 in 10.0 mi NE 4.6 mph - N/A   Clear
8:15 PM 66.2 °F 46.4 °F 49% 29.84 in 10.0 mi ENE 4.6 mph - N/A   Clear
8:35 PM 64.4 °F 46.4 °F 52% 29.84 in 10.0 mi ENE 5.8 mph - N/A   Clear
8:55 PM 62.6 °F 46.4 °F 55% 29.84 in 10.0 mi East 5.8 mph - N/A   Scattered Clouds
9:15 PM 64.4 °F 46.4 °F 52% 29.85 in 10.0 mi East 5.8 mph - N/A   Scattered Clouds
9:35 PM 60.8 °F 48.2 °F 63% 29.86 in 10.0 mi East 4.6 mph - N/A   Scattered Clouds
9:55 PM 60.8 °F 46.4 °F 59% 29.86 in 10.0 mi ESE 5.8 mph - N/A   Mostly Cloudy
10:15 PM 60.8 °F 48.2 °F 63% 29.87 in 10.0 mi SE 8.1 mph - N/A   Mostly Cloudy
10:35 PM 59.0 °F 48.2 °F 67% 29.86 in 10.0 mi East 5.8 mph - N/A   Mostly Cloudy
10:55 PM 60.8 °F 48.2 °F 63% 29.87 in 10.0 mi East 3.5 mph - N/A   Scattered Clouds
11:15 PM 60.8 °F 46.4 °F 59% 29.88 in 10.0 mi North 5.8 mph - N/A   Mostly Cloudy
11:35 PM 60.8 °F 46.4 °F 59% 29.88 in 10.0 mi NE 6.9 mph - N/A   Scattered Clouds
11:55 PM 60.8 °F 46.4 °F 59% 29.88 in 10.0 mi NNE 12.7 mph 18.4 mph N/A   Scattered Clouds